Showing default

ION SCV-014, 62630

Orbit data source: Space-Track

ION SCV-014, 62630 is a payload satellite owned by D-ORBIT (IT) in SSO that was launched on Tue, 14 Jan 2025 UTC via an FALCON 9 launch vehicle from the Air Force Western Test Range (AFWTR). Payload-class satellites include a variety of spacecraft equipped with specific instruments for various scientific and technological missions. These include communications satellites like Starlink; space stations such as the ISS; scientific satellites like the Hubble; Earth observation satellites from companies like Planet Labs, Umbra, and HawkEye 360; GPS; miniature CubeSats for education and research; and military/defense satellites.

Loading next visibility...
Identifier
62630, 2025-009X
Orbit
SSO
Country
Flag of ITIT
Related business
Manufacturer
D-ORBIT
Mission
Operational Commercial Technology
Bus & Motor
ION-SC, PM200
Mass
220 kg wet, 150 kg dry
Launch date (UTC)
2025-01-14 (2 years ago)
Launch vehicle
FALCON 9
Launch site
Air Force Western Test Range (AFWTR)
Object type
Payload
Rocket body
Debris
Shape & HBR
Box, 1.1 m
Radar Cross Section
0.240 m², Large (>1 m²)

Expand to show TLE details & history
Last TLE update: 9 hours ago

TLE from 9 hours ago
0 ION SCV-014
1 62630U 25009X   26238.10697747  .00000777  00000-0  58321-4 0  9999
2 62630  97.4805 309.1601 0003123 257.9995 102.0882 15.05410896 88508
Epoch: 2026-08-26T02:34Z
TLE epoch observation values (Epoch: 2026-08-26T02:34:02.853Z)
Latitude
-0.00002°
Longitude
-63.71651°
Altitude
553.767 km
Speed
7.585 km/s
True Right ascension
20h 36m 38s
True Declination
0° 00' 00"
Sunlit
Object was in full shadow at epoch
Visualization orbit readout
Latitude
Unknown
Longitude
Unknown
Altitude
Unknown
Speed
Unknown
Apparent Right ascension
Unknown
Apparent Declination
Unknown
Sunlit
N/A
Visualization observer readout
Local Sidereal Time
02:59:53
Azimuth
Unknown
Elevation
Unknown
Doppler factor
Unknown
Orbital elements
Apogee altitude
549.396 km
Perigee altitude
545.07 km
Semi-major axis
6,925.37 km
Eccentricity
0.00031
Inclination
97.4805°
RAAN
309.1601°
Arg. of periapsis
257.9995°
True anomaly
102.12319°
Mean anomaly
102.0882°
Eccentric anomaly
102.1057°
Mean motion
3.76599 °/min
Orbital period
95.59 mins
BSTAR
0.000058321
Loading maneuver chart data...
Computing Atmospheric mass density...
Loading historical data...
Loading historical data...
Loading historical data...
Loading historical data...
Loading historical data...
Loading historical data...
Loading historical data...

Documentation

Showing up to 5 results
|